Location: Bothell
(47.7630°N, 122.2040°W)
Time: 07:53:50
(UTC-08:00)

Amateur Radio Satellites - All Passes

Search period start: 23 November 2014 07:23
Search period end: 24 November 2014 07:23
Location: Bothell, 47.7630°N, 122.2040°W

Satellite Date Start Highest point End Downlink Frequencies (MHz)
Time Altitude Azimuth
AIST 1 23 Nov 07:32:41 07:36:57 50° 266° (W) 07:41:10
AIST 2 23 Nov 07:34:52 07:36:53 13° 251° (WSW) 07:38:52 435.215
STRAND 1 23 Nov 07:36:39 07:39:45 16° 271° (W) 07:42:52 437.568
JAS-2 23 Nov 07:55:22 07:59:53 18° 313° (NW) 08:04:10 435.910
O/OREOS (USA 219) 23 Nov 08:00:25 08:04:15 27° 307° (NW) 08:08:05 437.305
HO-68 23 Nov 08:06:57 08:12:47 26° 92° (E) 08:18:33 435.675
AO-7 23 Nov 08:09:23 08:12:33 13° 328° (NNW) 08:15:44 29.400- 29.500
Cubesat XI-IV 23 Nov 08:12:08 08:16:05 21° 302° (WNW) 08:20:01 437.490
GOMX 1 23 Nov 08:13:14 08:14:46 12° 88° (E) 08:16:18 467.674
CUTE 1.7 & AOD 2 23 Nov 08:14:43 08:17:46 19° 91° (E) 08:20:49 437.475
GONETS M04 23 Nov 08:19:47 08:28:22 61° 91° (E) 08:37:01
SO-50 23 Nov 08:22:34 08:23:54 11° 351° (N) 08:25:15 436.795
BRITE-PL 23 Nov 08:24:59 08:28:12 21° 93° (E) 08:31:24 437.365/2234.400
Oscar 11 23 Nov 08:42:08 08:44:08 13° 88° (E) 08:46:07 145.826/435.025
CINEMA 3 23 Nov 08:43:52 08:45:28 12° 88° (E) 08:47:03 145.822/145.860
SEEDS 23 Nov 08:51:01 08:55:00 37° 97° (E) 08:58:58 437.485
CUTE-I 23 Nov 08:56:38 08:57:48 11° 310° (NW) 08:58:59 437.470
POLYITAN 1 23 Nov 08:57:42 09:00:41 19° 62° (ENE) 09:03:39 437.675
DX 1 23 Nov 09:00:18 09:03:12 17° 91° (E) 09:06:05 434.975-435.025
QB50P2 23 Nov 09:00:49 09:03:55 20° 63° (ENE) 09:07:02 145.880/145.840
TIGRISAT 23 Nov 09:01:18 09:04:51 26° 65° (ENE) 09:08:24 435.000
DUCHIFAT 1 23 Nov 09:08:35 09:11:56 23° 64° (ENE) 09:15:17 145.980
UNISAT 6 23 Nov 09:12:52 09:16:43 34° 68° (ENE) 09:20:35 437.425
AAUSAT CUBESAT 2 23 Nov 09:13:57 09:18:04 49° 99° (E) 09:22:10 437.432
CANX-2 23 Nov 09:14:36 09:18:54 82° 103° (ESE) 09:23:12 2200.000
DOVE 4 23 Nov 09:21:04 09:25:04 44° 99° (E) 09:29:06 437.250
ZACube-1 23 Nov 09:26:04 09:28:44 16° 91° (E) 09:31:24 437.345
NANOSAT C BR1 23 Nov 09:26:53 09:30:43 34° 68° (ENE) 09:34:34 145.865
COMPASS 1 23 Nov 09:27:03 09:31:19 76° 103° (ESE) 09:35:33 437.405
HUMSAT D 23 Nov 09:32:57 09:34:23 12° 88° (E) 09:35:49 437.325/437.525
DELFI C3 23 Nov 09:34:29 09:38:19 36° 97° (E) 09:42:09 145.870
QB50P1 23 Nov 09:36:08 09:40:09 41° 69° (ENE) 09:44:10 145.935-145.965
ANTELSAT 23 Nov 09:40:48 09:45:02 65° 73° (ENE) 09:49:17 437.575/2403.000
AISAT 23 Nov 09:41:16 09:43:58 16° 90° (E) 09:46:39 437.250
50 SAT 23 Nov 09:41:49 09:43:16 12° 88° (E) 09:44:43 437.505
GOMX 1 23 Nov 09:49:18 09:53:27 70° 286° (WNW) 09:57:36 467.674
CUTE 1.7 & AOD 2 23 Nov 09:49:50 09:53:58 48° 289° (WNW) 09:58:06 437.475
HO-68 23 Nov 09:53:57 10:01:07 72° 292° (WNW) 10:08:13 435.675
POPSAT HIP 1 23 Nov 10:00:15 10:04:30 73° 74° (ENE) 10:08:46 437.405
FUNcube-1 23 Nov 10:01:05 10:04:58 35° 97° (E) 10:08:53 145.935
BUGSAT 1 23 Nov 10:02:14 10:06:28 65° 73° (ENE) 10:10:41 437.445
UKube-1 23 Nov 10:02:51 10:07:13 70° 103° (ESE) 10:11:31 .
BRITE-PL 23 Nov 10:03:04 10:06:56 37° 291° (WNW) 10:10:46 437.365/2234.400
SO-50 23 Nov 10:04:24 10:06:36 13° 16° (NNE) 10:08:49 436.795
CUBEBUG 1 23 Nov 10:07:10 10:07:49 10° 86° (E) 10:08:28 437.445
CUBEBUG 2 23 Nov 10:13:00 10:17:10 64° 101° (ESE) 10:21:25 437.445
Oscar 11 23 Nov 10:16:28 10:20:49 73° 286° (WNW) 10:25:09 145.826/435.025
GONETS M04 23 Nov 10:17:45 10:25:42 36° 294° (WNW) 10:33:44
CINEMA 3 23 Nov 10:19:01 10:23:12 73° 286° (WNW) 10:27:26 145.822/145.860
UWE-3 23 Nov 10:19:29 10:23:40 65° 102° (ESE) 10:27:55 435.000/436.395/437.385
SEEDS 23 Nov 10:27:13 10:30:41 25° 295° (WNW) 10:34:09 437.485
POLYITAN 1 23 Nov 10:32:08 10:36:18 52° 260° (W) 10:40:29 437.675
SHINDAISAT 23 Nov 10:33:33 10:34:22 13° 119° (ESE) 10:35:12 437.305
QB50P2 23 Nov 10:35:25 10:39:33 48° 260° (W) 10:43:42 145.880/145.840
DX 1 23 Nov 10:35:32 10:39:48 54° 289° (WNW) 10:44:02 434.975-435.025
TIGRISAT 23 Nov 10:37:37 10:41:31 34° 263° (W) 10:45:25 435.000
ESTCUBE 1 23 Nov 10:40:35 10:44:20 25° 94° (E) 10:48:04 437.505/2401.250
DUCHIFAT 1 23 Nov 10:43:34 10:47:36 40° 262° (W) 10:51:38 145.980
UNISAT 6 23 Nov 10:50:00 10:53:36 26° 265° (W) 10:57:12 437.425
AAUSAT CUBESAT 2 23 Nov 10:50:25 10:53:26 19° 297° (WNW) 10:56:28 437.432
VELOX 1 23 Nov 10:52:09 10:56:36 76° 103° (ESE) 11:01:01 145.980
CANX-2 23 Nov 10:52:16 10:54:15 13° 301° (WNW) 10:56:15 2200.000
DOVE 4 23 Nov 10:59:36 11:02:37 20° 297° (WNW) 11:05:38 437.250
ZACube-1 23 Nov 11:01:21 11:05:27 54° 288° (WNW) 11:09:36 437.345
NANOSAT C BR1 23 Nov 11:03:03 11:06:40 26° 265° (W) 11:10:17 145.865
COMPASS 1 23 Nov 11:04:22 11:06:30 14° 301° (WNW) 11:08:38 437.405
HUMSAT D 23 Nov 11:06:35 11:10:44 75° 286° (WNW) 11:14:54 437.325/437.525
DELFI C3 23 Nov 11:10:08 11:13:29 24° 295° (WNW) 11:16:50 145.870
QB50P1 23 Nov 11:12:57 11:16:14 21° 267° (W) 11:19:32 145.935-145.965
50 SAT 23 Nov 11:15:02 11:19:05 72° 286° (WNW) 11:23:08 437.505
AISAT 23 Nov 11:16:39 11:21:02 62° 288° (WNW) 11:25:23 437.250
ANTELSAT 23 Nov 11:20:04 11:22:19 14° 271° (W) 11:24:34 437.575/2403.000
Oscar 19 23 Nov 11:34:20 11:38:24 24° 61° (ENE) 11:42:28 437.125/150
FUNcube-1 23 Nov 11:37:46 11:41:12 25° 295° (WNW) 11:44:40 145.935
POPSAT HIP 1 23 Nov 11:39:06 11:40:56 12° 272° (W) 11:42:46 437.405
TISAT 1 23 Nov 11:39:57 11:43:29 25° 94° (E) 11:46:58 437.305
BUGSAT 1 23 Nov 11:40:08 11:42:24 14° 270° (W) 11:44:40 437.445
UKube-1 23 Nov 11:40:20 11:42:52 15° 301° (WNW) 11:45:24 .
CUBEBUG 1 23 Nov 11:40:27 11:44:52 90° 287° (WNW) 11:49:13 437.445
SPROUT 23 Nov 11:40:41 11:44:09 23° 93° (E) 11:47:35 437.525
HO-68 23 Nov 11:43:04 11:47:40 19° 313° (NW) 11:52:14 435.675
SO-50 23 Nov 11:44:11 11:48:36 34° 39° (NE) 11:53:02 436.795
CUBEBUG 2 23 Nov 11:50:59 11:53:28 15° 299° (WNW) 11:55:57 437.445
Oscar 11 23 Nov 11:55:58 11:56:12 10° 304° (NW) 11:56:27 145.826/435.025
UWE-3 23 Nov 11:57:21 11:59:47 15° 299° (WNW) 12:02:14 435.000/436.395/437.385
SHINDAISAT 23 Nov 12:03:56 12:04:18 11° 317° (NW) 12:04:41 437.305
ESTCUBE 1 23 Nov 12:17:06 12:21:22 40° 292° (WNW) 12:25:35 437.505/2401.250
ITAMSAT 1 23 Nov 12:20:43 12:25:01 27° 62° (ENE) 12:29:19 435.822/435.867
VELOX 1 23 Nov 12:30:11 12:32:38 15° 302° (WNW) 12:35:05 145.980
YUBILEINY 23 Nov 12:36:13 12:43:57 33° 65° (ENE) 12:51:35 435.215
Gurwin Techsat 1B 23 Nov 12:36:34 12:40:35 22° 59° (ENE) 12:44:38 435.225
ITUPSAT 1 23 Nov 12:43:32 12:47:03 20° 91° (E) 12:50:32 437.325
CUSAT 1 23 Nov 12:52:04 12:54:13 21° 95° (E) 12:56:18 437.405
SWISSCUBE 23 Nov 12:55:13 12:59:20 27° 94° (E) 13:03:24 437.505
DANDE 23 Nov 13:05:10 13:07:36 26° 96° (E) 13:09:52 436.750
Oscar 19 23 Nov 13:12:26 13:17:25 53° 260° (W) 13:22:27 437.125/150
TISAT 1 23 Nov 13:15:34 13:19:24 34° 292° (WNW) 13:23:12 437.305
SPROUT 23 Nov 13:16:23 13:20:23 38° 291° (WNW) 13:24:20 437.525
CUBEBUG 1 23 Nov 13:18:47 13:20:34 12° 303° (WNW) 13:22:21 437.445
HORYU 2 23 Nov 13:20:14 13:23:33 21° 62° (ENE) 13:26:53 437.375
SO-50 23 Nov 13:24:39 13:29:20 48° 239° (WSW) 13:34:02 436.795
BEESAT 23 Nov 13:26:35 13:31:16 49° 100° (E) 13:35:54 436.000
AUBIESAT-1 23 Nov 13:30:29 13:35:22 61° 106° (ESE) 13:40:11 437.475
AO-7 23 Nov 13:33:23 13:40:07 29° 50° (NE) 13:46:54 29.400- 29.500
M-CUBED/EXP-1 PRIME 23 Nov 13:33:41 13:38:37 70° 108° (ESE) 13:43:30 437.505
ITAMSAT 1 23 Nov 13:59:10 14:04:14 50° 260° (W) 14:09:20 435.822/435.867
STARS 23 Nov 14:04:21 14:07:27 19° 92° (E) 14:10:32 437.465
Gurwin Techsat 1B 23 Nov 14:14:52 14:20:07 63° 258° (WSW) 14:25:26 435.225
ITUPSAT 1 23 Nov 14:20:34 14:25:18 56° 290° (WNW) 14:29:59 437.325
YUBILEINY 23 Nov 14:32:48 14:41:24 65° 267° (W) 14:49:55 435.215
SWISSCUBE 23 Nov 14:32:49 14:37:19 40° 293° (WNW) 14:41:47 437.505
CUSAT 1 23 Nov 14:36:44 14:37:26 11° 293° (WNW) 14:38:08 437.405
KKS-1 23 Nov 14:38:16 14:42:39 57° 101° (E) 14:47:00 437.445
JAS-2 23 Nov 14:40:03 14:45:44 23° 52° (NE) 14:51:27 435.910
O/OREOS (USA 219) 23 Nov 14:48:07 14:51:32 21° 49° (NE) 14:54:57 437.305
HORYU 2 23 Nov 14:55:38 14:59:56 49° 260° (W) 15:04:16 437.375
RS-15 23 Nov 15:03:01 15:10:52 24° 101° (E) 15:18:41 29.354- 29.394
BEESAT 23 Nov 15:05:01 15:08:50 24° 298° (WNW) 15:12:38 436.000
AUBIESAT-1 23 Nov 15:06:09 15:09:58 23° 304° (NW) 15:13:47 437.475
M-CUBED/EXP-1 PRIME 23 Nov 15:09:34 15:13:11 21° 305° (NW) 15:16:48 437.505
AO-7 23 Nov 15:23:47 15:32:06 83° 251° (WSW) 15:40:29 29.400- 29.500
STARS 23 Nov 15:39:58 15:44:14 51° 290° (WNW) 15:48:29 437.465
MaSat-1 23 Nov 15:41:24 15:44:13 38° 116° (ESE) 15:46:48 437.345
PHONESAT 2.4 23 Nov 15:53:04 15:54:35 12° 155° (SSE) 15:56:06 2401.200-2431.200
VERMONT LUNAR 23 Nov 16:13:56 16:16:24 17° 162° (SSE) 16:18:52 437.305
KKS-1 23 Nov 16:15:50 16:18:55 19° 299° (WNW) 16:21:59 437.445
Cubesat XI-IV 23 Nov 16:18:07 16:22:26 25° 60° (ENE) 16:26:45 437.490
JAS-2 23 Nov 16:22:00 16:29:38 81° 73° (ENE) 16:37:33 435.910
O/OREOS (USA 219) 23 Nov 16:26:55 16:31:18 57° 249° (WSW) 16:35:41 437.305
YUBILEINY 23 Nov 16:32:27 16:36:21 14° 290° (WNW) 16:40:15 435.215
CUTE-I 23 Nov 16:59:12 17:04:22 51° 68° (ENE) 17:09:32 437.470
MOZHAYETS 4 23 Nov 17:00:03 17:04:38 53° 100° (E) 17:09:11
RS-15 23 Nov 17:10:32 17:21:29 83° 124° (SE) 17:32:30 29.354- 29.394
MaSat-1 23 Nov 17:17:33 17:18:58 13° 311° (NW) 17:20:19 437.345
AO-7 23 Nov 17:20:30 17:26:07 20° 272° (W) 17:31:48 29.400- 29.500
PHONESAT 2.4 23 Nov 17:29:35 17:32:38 24° 171° (S) 17:35:42 2401.200-2431.200
PRISM 23 Nov 17:33:49 17:37:13 23° 94° (E) 17:40:36 437.425
VERMONT LUNAR 23 Nov 17:51:11 17:54:16 26° 179° (S) 17:57:21 437.305
Cubesat XI-IV 23 Nov 17:56:55 18:02:11 56° 259° (W) 18:07:29 437.490
STRAND 1 23 Nov 18:02:53 18:06:36 20° 91° (E) 18:10:17 437.568
JAS-2 23 Nov 18:09:23 18:15:26 25° 273° (W) 18:21:42 435.910
GONETS M04 23 Nov 18:25:49 18:33:52 37° 66° (ENE) 18:41:49
CUBESAT XI-V 23 Nov 18:34:08 18:38:32 39° 97° (E) 18:42:52 437.345
MOZHAYETS 4 23 Nov 18:38:02 18:41:31 21° 298° (WNW) 18:45:00
CANX-2 23 Nov 18:38:31 18:39:58 12° 57° (ENE) 18:41:25 2200.000
HO-68 23 Nov 18:39:27 18:45:29 30° 56° (NE) 18:51:31 435.675
CUTE-I 23 Nov 18:40:16 18:44:42 26° 267° (W) 18:49:08 437.470
COMPASS 1 23 Nov 18:50:29 18:51:13 10° 57° (ENE) 18:51:57 437.405
PCSat 23 Nov 19:06:50 19:10:03 16° 105° (ESE) 19:13:17 145.827
PHONESAT 2.4 23 Nov 19:07:49 19:10:53 24° 189° (S) 19:13:56 2401.200-2431.200
PRISM 23 Nov 19:08:57 19:12:55 39° 292° (WNW) 19:16:51 437.425
CUTE 1.7 & AOD 2 23 Nov 19:11:27 19:14:40 22° 64° (ENE) 19:17:54 437.475
GOMX 1 23 Nov 19:23:51 19:27:33 23° 65° (ENE) 19:31:05 467.674
RS-15 23 Nov 19:24:48 19:35:02 43° 332° (NNW) 19:45:28 29.354- 29.394
UKube-1 23 Nov 19:28:07 19:30:04 13° 57° (ENE) 19:32:01 .
VERMONT LUNAR 23 Nov 19:29:31 19:32:10 19° 196° (SSW) 19:34:48 437.305
BRITE-PL 23 Nov 19:38:32 19:43:14 42° 70° (ENE) 19:47:37 437.365/2234.400
Oscar 11 23 Nov 19:40:22 19:43:07 17° 61° (ENE) 19:45:52 145.826/435.025
STRAND 1 23 Nov 19:41:10 19:46:13 61° 289° (WNW) 19:51:14 437.568
CUBEBUG 2 23 Nov 19:42:19 19:43:07 11° 57° (ENE) 19:43:56 437.445
SEEDS 23 Nov 19:46:51 19:50:47 41° 70° (ENE) 19:54:45 437.485
UWE-3 23 Nov 19:47:57 19:48:39 10° 57° (ENE) 19:49:21 435.000/436.395/437.385
CINEMA 3 23 Nov 19:48:51 19:51:53 19° 63° (ENE) 19:54:50 145.822/145.860
DX 1 23 Nov 19:59:12 20:02:45 25° 64° (ENE) 20:06:19 434.975-435.025
AIST 1 23 Nov 20:05:22 20:09:46 80° 98° (E) 20:14:13
AAUSAT CUBESAT 2 23 Nov 20:08:40 20:12:42 52° 72° (ENE) 20:16:47 437.432
CANX-2 23 Nov 20:11:02 20:15:15 89° 77° (ENE) 20:19:31 2200.000
CUBESAT XI-V 23 Nov 20:11:52 20:15:50 28° 295° (WNW) 20:19:46 437.345
VELOX 1 23 Nov 20:19:22 20:21:48 15° 58° (ENE) 20:24:14 145.980
COMPASS 1 23 Nov 20:22:04 20:26:14 81° 75° (ENE) 20:30:27 437.405
GONETS M04 23 Nov 20:22:33 20:31:11 60° 269° (W) 20:39:44
HO-68 23 Nov 20:25:32 20:32:41 69° 256° (WSW) 20:39:54 435.675
ZACube-1 23 Nov 20:25:53 20:29:01 21° 64° (ENE) 20:32:09 437.345
DELFI C3 23 Nov 20:26:45 20:30:29 36° 69° (ENE) 20:34:16 145.870
HUMSAT D 23 Nov 20:28:49 20:31:03 14° 60° (ENE) 20:33:18 437.325/437.525
DOVE 4 23 Nov 20:30:03 20:34:40 71° 74° (ENE) 20:39:02 437.250
50 SAT 23 Nov 20:34:29 20:36:29 14° 60° (ENE) 20:38:29 437.505
AISAT 23 Nov 20:42:43 20:46:15 23° 63° (ENE) 20:49:48 437.250
CUTE 1.7 & AOD 2 23 Nov 20:46:21 20:50:22 42° 262° (W) 20:54:25 437.475
PCSat 23 Nov 20:47:18 20:52:44 87° 304° (WNW) 20:58:12 145.827
PHONESAT 2.4 23 Nov 20:47:24 20:48:56 12° 205° (SSW) 20:50:28 2401.200-2431.200
BEESAT 3 23 Nov 20:57:27 21:01:28 55° 122° (ESE) 21:05:34 437.485
FUNcube-1 23 Nov 21:00:37 21:04:36 43° 70° (ENE) 21:08:34 145.935
GOMX 1 23 Nov 21:00:51 21:05:29 46° 261° (W) 21:09:51 467.674
UKube-1 23 Nov 21:01:13 21:05:35 87° 256° (WSW) 21:09:59 .
CUBEBUG 1 23 Nov 21:05:55 21:08:34 16° 59° (ENE) 21:11:13 437.445
BEESAT 2 23 Nov 21:10:45 21:14:51 67° 124° (SE) 21:19:03 435.950
Oscar 11 23 Nov 21:14:36 21:18:51 61° 259° (W) 21:23:08 145.826/435.025
CUBEBUG 2 23 Nov 21:14:53 21:19:10 82° 75° (ENE) 21:23:23 437.445
BRITE-PL 23 Nov 21:17:39 21:21:52 26° 265° (W) 21:25:51 437.365/2234.400
UWE-3 23 Nov 21:20:16 21:24:31 82° 75° (ENE) 21:28:43 435.000/436.395/437.385
STRAND 1 23 Nov 21:23:11 21:24:24 11° 309° (NW) 21:25:37 437.568
SEEDS 23 Nov 21:23:36 21:26:49 21° 268° (W) 21:30:03 437.485
CINEMA 3 23 Nov 21:24:29 21:28:48 52° 260° (W) 21:32:58 145.822/145.860
ANTELSAT 23 Nov 21:32:06 21:33:07 11° 87° (E) 21:34:07 437.575/2403.000
AIST 2 23 Nov 21:34:17 21:38:27 60° 123° (ESE) 21:42:42 435.215
DX 1 23 Nov 21:34:41 21:38:49 40° 262° (W) 21:42:58 434.975-435.025
RS-15 23 Nov 21:41:21 21:50:59 33° 6° (N) 22:00:52 29.354- 29.394
ESTCUBE 1 23 Nov 21:43:37 21:47:45 35° 67° (ENE) 21:51:54 437.505/2401.250
AAUSAT CUBESAT 2 23 Nov 21:46:03 21:48:43 17° 270° (W) 21:51:24 437.432
AIST 1 23 Nov 21:46:08 21:48:05 13° 297° (WNW) 21:50:03
VELOX 1 23 Nov 21:53:19 21:57:48 79° 256° (WSW) 22:02:19 145.980
ZACube-1 23 Nov 22:01:08 22:05:10 43° 261° (W) 22:09:11 437.345
COMPASS 1 23 Nov 22:01:36 22:02:34 11° 273° (W) 22:03:32 437.405
HUMSAT D 23 Nov 22:02:16 22:06:24 67° 258° (WSW) 22:10:31 437.325/437.525
DELFI C3 23 Nov 22:02:42 22:05:55 22° 267° (W) 22:09:11 145.870
50 SAT 23 Nov 22:07:16 22:11:18 70° 258° (WSW) 22:15:20 437.505
DOVE 4 23 Nov 22:10:32 22:12:53 14° 270° (W) 22:15:11 437.250
POLYITAN 1 23 Nov 22:15:25 22:18:34 20° 92° (E) 22:21:42 437.675
QB50P2 23 Nov 22:18:20 22:21:37 21° 93° (E) 22:24:52 145.880/145.840
AISAT 23 Nov 22:18:22 22:22:40 44° 261° (W) 22:26:58 437.250
HO-68 23 Nov 22:18:31 22:21:44 13° 276° (W) 22:24:58 435.675
GONETS M04 23 Nov 22:22:43 22:25:59 13° 291° (WNW) 22:29:15
TIGRISAT 23 Nov 22:25:33 22:29:36 35° 97° (E) 22:33:42 435.000
DUCHIFAT 1 23 Nov 22:25:50 22:29:20 25° 94° (E) 22:32:48 145.980
PCSat 23 Nov 22:32:45 22:36:56 22° 325° (NW) 22:41:08 145.827
TISAT 1 23 Nov 22:35:58 22:39:44 31° 67° (ENE) 22:43:30 437.305
BEESAT 3 23 Nov 22:36:33 22:40:00 25° 322° (NW) 22:43:30 437.485
UNISAT 6 23 Nov 22:37:42 22:41:59 48° 99° (E) 22:46:19 437.425
FUNcube-1 23 Nov 22:38:06 22:41:11 20° 268° (W) 22:44:16 145.935
SPROUT 23 Nov 22:38:22 22:42:05 29° 66° (ENE) 22:45:49 437.525
CUBEBUG 1 23 Nov 22:39:59 22:44:26 71° 258° (WSW) 22:48:54 437.445
NANOSAT C BR1 23 Nov 22:44:31 22:48:29 38° 98° (E) 22:52:26 145.865
AUBIESAT-1 23 Nov 22:50:11 22:53:04 18° 53° (NE) 22:56:07 437.475
BEESAT 2 23 Nov 22:50:17 22:53:34 22° 325° (NW) 22:56:54 435.950
M-CUBED/EXP-1 PRIME 23 Nov 22:53:26 22:56:32 21° 55° (NE) 22:59:51 437.505
QB50P1 23 Nov 22:54:00 22:58:06 48° 100° (E) 23:02:11 145.935-145.965
CUBEBUG 2 23 Nov 22:55:30 22:56:27 11° 273° (W) 22:57:25 437.445
UWE-3 23 Nov 23:00:41 23:01:39 11° 273° (W) 23:02:37 435.000/436.395/437.385
BEESAT 23 Nov 23:01:59 23:04:10 13° 55° (NE) 23:06:21 436.000
ANTELSAT 23 Nov 23:06:07 23:10:32 89° 284° (WNW) 23:15:03 437.575/2403.000
AIST 2 23 Nov 23:13:54 23:17:26 24° 323° (NW) 23:21:01 435.215
BUGSAT 1 23 Nov 23:17:09 23:21:17 71° 102° (ESE) 23:25:20 437.445
POPSAT HIP 1 23 Nov 23:18:25 23:22:40 87° 104° (ESE) 23:26:53 437.405
ESTCUBE 1 23 Nov 23:20:43 23:24:40 29° 265° (W) 23:28:40 437.505/2401.250
CUSAT 1 23 Nov 23:24:29 23:28:21 38° 75° (ENE) 23:33:26 437.405
DANDE 23 Nov 23:39:58 23:43:46 43° 76° (ENE) 23:48:50 436.750
ISS 23 Nov 23:43:48 23:45:34 14° 135° (SE) 23:47:19 145.825
MaSat-1 23 Nov 23:44:03 23:44:44 11° 48° (NE) 23:45:26 437.345
POLYITAN 1 23 Nov 23:50:43 23:54:44 44° 290° (WNW) 23:58:45 437.675
ITUPSAT 1 23 Nov 23:53:34 23:57:52 34° 66° (ENE) 00:02:13 437.325
QB50P2 23 Nov 23:53:44 23:57:43 41° 291° (WNW) 00:01:41 145.880/145.840
RS-15 23 Nov 23:55:28 00:06:21 56° 38° (NE) 00:17:39 29.354- 29.394
DUCHIFAT 1 24 Nov 00:01:27 00:05:17 35° 292° (WNW) 00:09:07 145.980
TIGRISAT 24 Nov 00:02:34 00:06:15 27° 294° (WNW) 00:10:00 435.000
SWISSCUBE 24 Nov 00:05:07 00:09:41 46° 69° (ENE) 00:14:18 437.505
KKS-1 24 Nov 00:06:58 00:08:21 11° 55° (NE) 00:09:44 437.445
TISAT 1 24 Nov 00:11:50 00:15:34 29° 264° (W) 00:19:19 437.305
SPROUT 24 Nov 00:14:14 00:18:07 32° 264° (W) 00:22:01 437.525
UNISAT 6 24 Nov 00:15:12 00:18:31 21° 297° (WNW) 00:21:53 437.425
NANOSAT C BR1 24 Nov 00:20:50 00:24:12 24° 296° (WNW) 00:27:34 145.865
PCSat 24 Nov 00:22:08 00:22:33 10° 351° (N) 00:22:57 145.827
AUBIESAT-1 24 Nov 00:23:33 00:27:34 63° 254° (WSW) 00:32:00 437.475
M-CUBED/EXP-1 PRIME 24 Nov 00:27:15 00:31:12 52° 255° (WSW) 00:35:33 437.505
QB50P1 24 Nov 00:30:40 00:33:42 20° 298° (WNW) 00:36:44 145.935-145.965
BEESAT 24 Nov 00:36:28 00:41:15 82° 74° (ENE) 00:46:05 436.000
ANTELSAT 24 Nov 00:44:53 00:46:43 12° 302° (WNW) 00:48:34 437.575/2403.000
BUGSAT 1 24 Nov 00:54:10 00:56:16 14° 301° (WNW) 00:58:20 437.445
POPSAT HIP 1 24 Nov 00:56:17 00:57:57 12° 302° (WNW) 00:59:36 437.405
STARS 24 Nov 01:04:52 01:08:32 26° 64° (ENE) 01:12:12 437.465
CUSAT 1 24 Nov 01:07:53 01:11:27 25° 265° (W) 01:15:55 437.405
MaSat-1 24 Nov 01:17:26 01:19:28 26° 246° (WSW) 01:21:31 437.345
ISS 24 Nov 01:18:27 01:21:44 73° 153° (SSE) 01:25:01 145.825
Oscar 19 24 Nov 01:20:25 01:25:19 42° 98° (E) 01:30:12 437.125/150
DANDE 24 Nov 01:24:04 01:27:13 21° 266° (W) 01:31:02 436.750
ITUPSAT 1 24 Nov 01:31:25 01:35:45 33° 264° (W) 01:40:08 437.325
KKS-1 24 Nov 01:39:48 01:44:15 79° 74° (ENE) 01:48:44 437.445
YUBILEINY 24 Nov 01:42:17 01:49:46 33° 82° (E) 01:57:14 435.215
SWISSCUBE 24 Nov 01:43:54 01:47:46 24° 267° (W) 01:51:41 437.505
PCSat 24 Nov 02:06:28 02:08:38 12° 18° (NNE) 02:10:48 145.827
RS-15 24 Nov 02:08:08 02:18:59 59° 244° (WSW) 02:30:17 29.354- 29.394
ITAMSAT 1 24 Nov 02:08:28 02:13:27 45° 99° (E) 02:18:23 435.822/435.867
BEESAT 24 Nov 02:17:25 02:19:44 13° 272° (W) 02:22:04 436.000
Gurwin Techsat 1B 24 Nov 02:27:39 02:32:40 40° 97° (E) 02:37:39 435.225
MOZHAYETS 4 24 Nov 02:32:17 02:33:31 11° 55° (NE) 02:34:45
STARS 24 Nov 02:40:47 02:44:53 37° 262° (W) 02:49:00 437.465
HORYU 2 24 Nov 02:44:09 02:47:52 25° 94° (E) 02:51:34 437.375
ISS 24 Nov 02:55:22 02:58:32 43° 352° (N) 03:01:43 145.825
Oscar 19 24 Nov 03:00:03 03:04:31 31° 296° (WNW) 03:08:59 437.125/150
KKS-1 24 Nov 03:19:36 03:21:28 12° 272° (W) 03:23:21 437.445
AO-7 24 Nov 03:22:07 03:28:59 27° 92° (E) 03:35:49 29.400- 29.500
JAS-2 24 Nov 03:33:39 03:34:22 10° 76° (ENE) 03:35:06 435.910
BEESAT 3 24 Nov 03:36:45 03:39:54 20° 34° (NE) 03:43:02 437.485
YUBILEINY 24 Nov 03:37:16 03:46:00 65° 284° (WNW) 03:54:45 435.215
SO-50 24 Nov 03:43:11 03:46:52 25° 114° (ESE) 03:50:39 436.795
ITAMSAT 1 24 Nov 03:48:21 03:52:46 29° 297° (WNW) 03:57:09 435.822/435.867
PCSat 24 Nov 03:48:54 03:53:49 33° 43° (NE) 03:58:41 145.827
BEESAT 2 24 Nov 03:50:18 03:53:41 23° 36° (NE) 03:57:02 435.950
MOZHAYETS 4 24 Nov 04:05:20 04:09:54 73° 74° (ENE) 04:14:33
Gurwin Techsat 1B 24 Nov 04:07:51 04:12:32 33° 296° (WNW) 04:17:13 435.225
AIST 2 24 Nov 04:15:12 04:18:36 22° 35° (NE) 04:21:59 435.215
HORYU 2 24 Nov 04:20:30 04:24:41 39° 292° (WNW) 04:28:51 437.375
RS-15 24 Nov 04:24:05 04:28:48 14° 266° (W) 04:33:36 29.354- 29.394
PRISM 24 Nov 04:28:04 04:31:39 28° 65° (ENE) 04:35:17 437.425
ISS 24 Nov 04:32:20 04:35:34 49° 13° (NNE) 04:38:47 145.825
O/OREOS (USA 219) 24 Nov 05:07:30 05:08:03 10° 96° (E) 05:08:35 437.305
JAS-2 24 Nov 05:14:02 05:21:16 57° 99° (E) 05:27:39 435.910
AO-7 24 Nov 05:14:12 05:22:34 77° 293° (WNW) 05:30:54 29.400- 29.500
CUTE-I 24 Nov 05:14:17 05:17:15 15° 88° (E) 05:20:13 437.470
BEESAT 3 24 Nov 05:14:26 05:18:39 80° 234° (SW) 05:22:49 437.485
STRAND 1 24 Nov 05:21:44 05:26:32 41° 67° (ENE) 05:31:21 437.568
SO-50 24 Nov 05:22:40 05:27:08 52° 314° (NW) 05:31:45 436.795
BEESAT 2 24 Nov 05:28:10 05:32:23 66° 236° (SW) 05:36:31 435.950
PCSat 24 Nov 05:32:12 05:37:29 52° 243° (WSW) 05:42:42 145.827
YUBILEINY 24 Nov 05:39:42 05:44:54 17° 309° (NW) 05:50:07 435.215
CUBESAT XI-V 24 Nov 05:40:46 05:45:23 56° 71° (ENE) 05:50:01 437.345
MOZHAYETS 4 24 Nov 05:45:15 05:47:41 14° 272° (W) 05:50:08
AIST 2 24 Nov 05:53:23 05:57:42 72° 235° (SW) 06:01:57 435.215
PRISM 24 Nov 06:03:21 06:07:08 32° 263° (W) 06:10:58 437.425
ISS 24 Nov 06:09:02 06:12:15 48° 212° (SSW) 06:15:27 145.825
AIST 1 24 Nov 06:09:38 06:13:29 29° 71° (ENE) 06:17:16
Cubesat XI-IV 24 Nov 06:10:45 06:15:52 45° 99° (E) 06:20:57 437.490
O/OREOS (USA 219) 24 Nov 06:42:10 06:46:40 86° 114° (ESE) 06:51:10 437.305
CUTE-I 24 Nov 06:52:40 06:58:02 84° 286° (WNW) 07:03:20 437.470
JAS-2 24 Nov 06:59:27 07:05:55 34° 301° (WNW) 07:11:48 435.910
STRAND 1 24 Nov 07:01:19 07:05:50 30° 265° (W) 07:10:22 437.568
SO-50 24 Nov 07:05:55 07:08:46 16° 337° (NNW) 07:11:40 436.795
AO-7 24 Nov 07:08:04 07:14:09 23° 315° (NW) 07:20:14 29.400- 29.500
